Flag for U.S.A. Weather past 2 weeks in Miami, Florida, U.S.A.

Now
81 °F

Passing clouds.


Feels Like: 86 °F
Forecast: 79 / 89 °F
Wind: No wind

Location: Miami International Airport

Current Time: Jul 30, 2015 at 5:05:21 AM

Latest Report: Jul 30, 2015 at 3:53 AM


Visibility: 10 mi

Pressure: 30.00 "Hg

Humidity: 79%

Dew point: 74 °F

Location of MiamiLocation

Historic Weather in Miami — Graph

°F

Miami temperature yesterday

Maximum temperature yesterday: 95 °F (at 2:53 PM)
Minimum temperature yesterday: 79 °F (at 4:53 AM)
Average temperature yesterday: 85 °F

Past Weeks' High & Low Weather Summary

 TemperatureHumidityPressure
High95 °F (Jul 29, 2:53 PM)90% (Jul 25, 9:53 PM)30.09 "Hg (Jul 25, 9:53 PM)
Low75 °F (Jul 25, 5:53 PM)37% (Jul 29, 2:53 PM)29.89 "Hg (Jul 26, 4:53 AM)
Average83 °F71%30.01 "Hg
* Reported Jul 15 3:53 AM — Jul 30 3:53 AM, Miami, Weather by CustomWeather, © 2015

Note: Actual official high and low records may vary slightly from our data, if they occured in-between our weather recording intervals... More about our weather records

Advertising

Miami weather history for previous 24 hours

 ConditionsComfort  
Time TempWeatherWind HumidityBarometerVisibility
3:53 AM
Thu, Jul 30
81 °FPassing clouds.No wind79%30.00 "Hg10 mi
2:53 AM82 °FPassing clouds.3 mph77%30.01 "Hg10 mi
1:53 AM82 °FPassing clouds.No wind77%30.01 "Hg10 mi
12:53 AM82 °FClear.7 mph77%30.02 "Hg10 mi
11:53 PM
Wed, Jul 29
83 °FPartly cloudy.8 mph77%30.02 "Hg10 mi
10:53 PM83 °FPartly cloudy.3 mph77%30.02 "Hg10 mi
9:53 PM84 °FMostly cloudy.6 mph74%30.00 "Hg10 mi
8:53 PM85 °FMostly cloudy.3 mph72%29.99 "Hg10 mi
7:53 PM87 °FMostly cloudy.No wind63%29.97 "Hg10 mi
6:53 PM86 °FMostly cloudy.6 mph65%29.96 "Hg10 mi
5:53 PM87 °FMostly cloudy.8 mph61%29.98 "Hg10 mi
4:53 PM89 °FThunderstorms. Cloudy.7 mph61%29.99 "Hg10 mi
3:53 PM92 °FCloudy.7 mph49%29.99 "Hg10 mi
2:53 PM95 °FBroken clouds.10 mph37%30.00 "Hg10 mi
1:53 PM91 °FBroken clouds.6 mph50%30.02 "Hg10 mi
12:53 PM90 °FPartly sunny.7 mph52%30.01 "Hg10 mi
11:53 AM88 °FPartly sunny.7 mph57%30.02 "Hg10 mi
10:53 AM87 °FPartly sunny.6 mph63%30.03 "Hg10 mi
9:53 AM85 °FPartly sunny.8 mph72%30.02 "Hg10 mi
8:53 AM84 °FPartly sunny.7 mph74%30.02 "Hg10 mi
7:53 AM81 °FPartly sunny.5 mph79%30.01 "Hg10 mi
6:53 AM80 °FPartly cloudy.5 mph81%30.00 "Hg10 mi
5:53 AM80 °FPassing clouds.3 mph81%29.98 "Hg10 mi
Weather by CustomWeather, © 2015

See weather overviewHow to use our weather pages